• In Hungary
  • List of Countries
  • For 7 days
  • Water Temperature
  • Satellite Maps
  • Weather Map
  • News
  • Weather Widgets
  • user-avatar
    Login

    Hourly Weather Stanymyr

    Today, 18 October, Wednesday

    Time Temperature Precipitation Wind Pressure Humidity
    00:00 +13°C° 0 mm 2 mps 737 mmHg 83%
    01:00 +12°C° 0 mm 2 mps 737 mmHg 83%
    02:00 +12°C° 0 mm 1 mps 737 mmHg 86%
    03:00 +10°C° 0 mm 2 mps 737 mmHg 85%
    04:00 +10°C° 0 mm 2 mps 736 mmHg 85%
    05:00 +10°C° 0 mm 2 mps 736 mmHg 85%
    06:00 +10°C° 0 mm 2 mps 736 mmHg 83%
    07:00 +12°C° 0 mm 2 mps 736 mmHg 81%
    08:00 +12°C° 0 mm 2 mps 736 mmHg 75%
    09:00 +14°C° 0 mm 2 mps 736 mmHg 68%
    10:00 +17°C° 0 mm 2 mps 735 mmHg 62%
    11:00 +19°C° 0 mm 2 mps 735 mmHg 56%
    12:00 +20°C° 0 mm 2 mps 735 mmHg 53%
    13:00 +21°C° 0 mm 2 mps 735 mmHg 51%
    14:00 +23°C° 0 mm 2 mps 735 mmHg 48%
    15:00 +21°C° 0 mm 2 mps 734 mmHg 53%
    16:00 +20°C° 0 mm 1 mps 734 mmHg 58%
    17:00 +19°C° 0 mm 1 mps 733 mmHg 63%
    18:00 +18°C° 0 mm 1 mps 733 mmHg 65%
    19:00 +16°C° 0 mm 1 mps 733 mmHg 68%
    20:00 +15°C° 0 mm 1 mps 733 mmHg 70%
    21:00 +15°C° 0 mm 1 mps 733 mmHg 71%
    22:00 +14°C° 0 mm 1 mps 733 mmHg 71%
    23:00 +14°C° 0 mm 1 mps 733 mmHg 72%

    Tomorrow, 19 October, Thursday

    Time Temperature Precipitation Wind Pressure Humidity
    00:00 +14°C° 0 mm 1 mps 733 mmHg 72%
    01:00 +13°C° 0 mm 1 mps 733 mmHg 72%
    02:00 +13°C° 0 mm 1 mps 733 mmHg 72%
    03:00 +13°C° 0 mm 1 mps 733 mmHg 72%
    04:00 +13°C° 0 mm 1 mps 732 mmHg 71%
    05:00 +13°C° 0 mm 1 mps 732 mmHg 70%
    06:00 +13°C° 0 mm 1 mps 732 mmHg 70%
    07:00 +13°C° 0 mm 1 mps 732 mmHg 69%
    08:00 +13°C° 0 mm 1 mps 732 mmHg 68%
    09:00 +15°C° 0 mm 1 mps 733 mmHg 62%
    10:00 +17°C° 0 mm 2 mps 733 mmHg 56%
    11:00 +19°C° 0 mm 2 mps 733 mmHg 50%
    12:00 +20°C° 0 mm 2 mps 733 mmHg 48%
    13:00 +21°C° 0 mm 2 mps 733 mmHg 45%
    14:00 +22°C° 0 mm 3 mps 733 mmHg 43%
    15:00 +20°C° 0 mm 2 mps 732 mmHg 49%
    16:00 +19°C° 0 mm 2 mps 732 mmHg 55%
    17:00 +17°C° 0 mm 2 mps 732 mmHg 61%
    18:00 +16°C° 0 mm 2 mps 732 mmHg 67%
    19:00 +15°C° 0 mm 1 mps 733 mmHg 72%
    20:00 +14°C° 0 mm 1 mps 733 mmHg 77%
    21:00 +13°C° 0 mm 1 mps 733 mmHg 80%
    22:00 +13°C° 0 mm 1 mps 733 mmHg 82%
    23:00 +12°C° 0 mm 1 mps 733 mmHg 85%

    Day after tomorrow, 20 October, Friday

    Time Temperature Precipitation Wind Pressure Humidity
    00:00 +12°C° 0 mm 1 mps 733 mmHg 87%
    01:00 +11°C° 0 mm 1 mps 734 mmHg 88%
    02:00 +11°C° 0 mm 1 mps 734 mmHg 90%
    03:00 +11°C° 0 mm 1 mps 734 mmHg 91%
    04:00 +10°C° 0 mm 1 mps 734 mmHg 92%
    05:00 +10°C° 0 mm 1 mps 734 mmHg 92%
    06:00 +10°C° 0 mm 1 mps 734 mmHg 92%
    07:00 +10°C° 0 mm 1 mps 734 mmHg 92%
    08:00 +10°C° 0 mm 1 mps 735 mmHg 92%
    09:00 +12°C° 0 mm 1 mps 735 mmHg 86%
    10:00 +14°C° 0 mm 1 mps 735 mmHg 79%
    11:00 +15°C° 0 mm 1 mps 736 mmHg 73%
    12:00 +16°C° 0 mm 2 mps 735 mmHg 70%
    13:00 +17°C° 0 mm 2 mps 735 mmHg 67%
    14:00 +18°C° 0 mm 2 mps 735 mmHg 64%
    15:00 +17°C° 0 mm 2 mps 735 mmHg 69%
    16:00 +16°C° 0 mm 2 mps 735 mmHg 73%
    17:00 +15°C° 0 mm 2 mps 735 mmHg 77%
    18:00 +14°C° 0 mm 2 mps 736 mmHg 81%
    19:00 +14°C° 0 mm 2 mps 736 mmHg 84%
    20:00 +13°C° 0 mm 2 mps 737 mmHg 87%
    21:00 +13°C° 0 mm 2 mps 737 mmHg 87%
    22:00 +13°C° 0 mm 2 mps 737 mmHg 87%
    23:00 +11°C° 0 mm 3 mps 737 mmHg 86%

    21 October, Saturday

    Time Temperature Precipitation Wind Pressure Humidity
    00:00 +12°C° 0 mm 2 mps 737 mmHg 85%
    01:00 +12°C° 0 mm 2 mps 737 mmHg 84%
    02:00 +12°C° 0 mm 2 mps 737 mmHg 84%
    03:00 +12°C° 0 mm 2 mps 737 mmHg 84%
    04:00 +10°C° 0 mm 2 mps 737 mmHg 84%
    05:00 +10°C° 0 mm 2 mps 737 mmHg 84%
    06:00 +10°C° 0 mm 3 mps 737 mmHg 83%
    07:00 +10°C° 0 mm 3 mps 738 mmHg 82%
    08:00 +9°C° 0 mm 3 mps 738 mmHg 81%
    09:00 +11°C° 0 mm 3 mps 738 mmHg 77%
    10:00 +12°C° 0 mm 4 mps 738 mmHg 72%
    11:00 +13°C° 0 mm 4 mps 738 mmHg 67%
    12:00 +13°C° 0 mm 4 mps 738 mmHg 65%
    13:00 +14°C° 0 mm 4 mps 737 mmHg 62%
    14:00 +15°C° 0 mm 4 mps 737 mmHg 60%
    15:00 +14°C° 0 mm 4 mps 737 mmHg 64%
    16:00 +13°C° 0 mm 3 mps 737 mmHg 68%
    17:00 +12°C° 0 mm 3 mps 736 mmHg 72%
    18:00 +11°C° 0 mm 3 mps 736 mmHg 74%
    19:00 +10°C° 0 mm 3 mps 736 mmHg 75%
    20:00 +10°C° 0 mm 3 mps 737 mmHg 77%
    21:00 +9°C° 0 mm 3 mps 736 mmHg 77%
    22:00 +8°C° 0 mm 4 mps 736 mmHg 77%
    23:00 +8°C° 0 mm 4 mps 736 mmHg 78%

    22 October, Sunday

    Time Temperature Precipitation Wind Pressure Humidity
    00:00 +8°C° 0 mm 4 mps 736 mmHg 78%
    01:00 +7°C° 0 mm 4 mps 736 mmHg 78%
    02:00 +7°C° 0 mm 4 mps 736 mmHg 78%
    03:00 +7°C° 0 mm 4 mps 735 mmHg 78%
    04:00 +6°C° 0 mm 4 mps 735 mmHg 79%
    05:00 +7°C° 0 mm 3 mps 735 mmHg 79%
    06:00 +7°C° 0 mm 3 mps 735 mmHg 79%
    07:00 +7°C° 0 mm 3 mps 735 mmHg 78%
    08:00 +7°C° 0 mm 3 mps 734 mmHg 78%
    09:00 +9°C° 0 mm 3 mps 734 mmHg 73%
    10:00 +11°C° 0 mm 3 mps 734 mmHg 68%
    11:00 +13°C° 0 mm 3 mps 734 mmHg 63%
    12:00 +14°C° 0 mm 3 mps 734 mmHg 60%
    13:00 +16°C° 0 mm 3 mps 733 mmHg 57%
    14:00 +17°C° 0 mm 3 mps 733 mmHg 55%
    15:00 +16°C° 0 mm 2 mps 732 mmHg 60%
    16:00 +15°C° 0 mm 2 mps 732 mmHg 65%
    17:00 +14°C° 0 mm 2 mps 732 mmHg 70%
    18:00 +13°C° 0 mm 2 mps 732 mmHg 73%
    19:00 +13°C° 0 mm 2 mps 732 mmHg 75%
    20:00 +12°C° 0 mm 2 mps 732 mmHg 78%
    21:00 +12°C° 0 mm 2 mps 732 mmHg 79%
    22:00 +10°C° 0 mm 2 mps 732 mmHg 80%
    23:00 +11°C° 0 mm 1 mps 732 mmHg 81%

    23 October, Monday

    Time Temperature Precipitation Wind Pressure Humidity
    00:00 +11°C° 0 mm 1 mps 732 mmHg 83%
    01:00 +11°C° 0 mm 1 mps 732 mmHg 84%
    02:00 +11°C° 0 mm 1 mps 732 mmHg 85%
    03:00 +10°C° 0 mm 1 mps 732 mmHg 87%
    04:00 +10°C° 0 mm 1 mps 732 mmHg 88%
    05:00 +10°C° 0 mm 1 mps 732 mmHg 90%
    06:00 +10°C° 0 mm 1 mps 732 mmHg 90%
    07:00 +10°C° 0 mm 1 mps 732 mmHg 91%
    08:00 +10°C° 0 mm 1 mps 732 mmHg 91%
    09:00 +11°C° 0 mm 1 mps 732 mmHg 87%
    10:00 +12°C° 0 mm 1 mps 732 mmHg 83%
    11:00 +13°C° 0 mm 2 mps 733 mmHg 79%
    12:00 +14°C° 0 mm 2 mps 732 mmHg 77%
    13:00 +14°C° 0 mm 2 mps 732 mmHg 75%
    14:00 +15°C° 0 mm 2 mps 732 mmHg 74%
    15:00 +14°C° 0 mm 2 mps 732 mmHg 77%
    16:00 +14°C° 0 mm 2 mps 733 mmHg 79%
    17:00 +13°C° 0 mm 2 mps 733 mmHg 82%
    18:00 +13°C° 0 mm 2 mps 733 mmHg 83%
    19:00 +12°C° 0 mm 2 mps 733 mmHg 85%
    20:00 +12°C° 0 mm 2 mps 733 mmHg 87%
    21:00 +12°C° 0 mm 2 mps 733 mmHg 87%
    22:00 +12°C° 0 mm 1 mps 734 mmHg 88%
    23:00 +11°C° 0 mm 1 mps 734 mmHg 89%
    Show more